Weather in Gotsatl Bolshoy

Russia / Republic of Dagestan     42°31′06″N   46°53′00″E
temp.,
°C
wind,
m/s
gust,
m/s
humid.,
%
clouds,
%
prec.,
mm/h
press.,
hPa
HPBL,
m
14 may, fri
fri1400:00+13ssw22505 0.0 101613
03:00+12ssw225041 0.0 101713
06:00+14ssw225346 0.0 101753
09:00+21se11340 0.0 1015418
12:00+25ene23240 0.0 10132140
15:00+25ese443420 0.0 10131403
18:00+17s336599 0.2 1016155
21:00+13ssw227682 0.3 101856
15 may, sat
sat1500:00+12ssw217466 0.0 101613
03:00+12ssw22690 0.0 101618
06:00+13ssw22670 0.0 101777
09:00+20se11400 0.0 1014542
12:00+23ne22290 0.0 10131784
15:00+25ne33324 0.0 10122480
18:00+20e23554 0.1 101394
21:00+15sse1166100 0.1 101615
16 may, sun
sun1600:00+13ssw116940 0.0 101511
03:00+12ssw22725 0.0 101514
06:00+14ssw22645 0.0 101486
09:00+20se12391 0.0 1012719
12:00+24ne23310 0.0 10091972
15:00+24e43390 0.0 10081089
18:00+20ese33540 0.0 1008109
21:00+15sw33500 0.0 101127
17 may, mon
mon1700:00+12sw33445 0.0 101125
03:00+11sw22470 0.0 101116
06:00+13sw22526 0.0 101074
09:00+21sw123467 0.0 1007500
12:00+26n23245 0.0 10051710
15:00+27sw34200 0.0 10052654
18:00+23ne11424 0.0 100528
21:00+16sw3243100 0.0 101018
18 may, tue
tue1800:00+14sw114958 0.0 101011
03:00+13ssw115043 0.0 101011
06:00+15sw0149100 0.0 101144
09:00+19nne224699 0.0 1010497
12:00+21nne335081 0.7 10091581
15:00+16ene217199 7.6 1012604
18:00+13e2292100 9.6 1013147
21:00+12wnw3394100 24.3 1015228